User: anonymous   Login
Location: Unspecified
(0.0000°N, 0.0000°E)
Time: 15:21:41
(UTC+02:00)
Language:

Cosmos 1703 Rocket - Orbit

View from above orbital plane
View from above orbital plane
View from above satellite
View from above satellite

Ground track
Ground track

The orbit data is extracted from the following two-line orbital elements,

1 16263U 85108B   17264.87214047  .00000072  00000-0  58339-5 0  9995
2 16263  82.5062  23.6132 0020905  33.6133  84.9911 14.83000445718710
Epoch (UTC): 21 September 2017 20:55:52
Eccentricity: 0.0020905
inclination: 82.5062°
perigee height: 605 km
apogee height: 634 km
right ascension of ascending node: 23.6132°
argument of perigee: 33.6133°
revolutions per day: 14.83000445
mean anomaly at epoch: 84.9911°
orbit number at epoch: 71871

The dashed part of the orbit path shows where the satellite is in the earth's shadow,  

DLR